Weather History for Newburgh, NY

Change the Weather History Date:

Saturday, March 29, 2014

  Actual Average Record
Temperature  
Mean Temperature 42 °F -  
Max Temperature 50 °F 49 °F 81 °F (1989)
Min Temperature 35 °F 32 °F 15 °F (1974)
Degree Days  
Heating Degree Days 22    
Moisture  
Dew Point 42 °F    
Average Humidity 93    
Maximum Humidity 100    
Minimum Humidity 81    
Precipitation  
Precipitation 0.00 in - - ()
Sea Level Pressure  
Sea Level Pressure 30.07 in    
Wind  
Wind Speed 8 mph (ENE)    
Max Wind Speed 18 mph    
Max Gust Speed 25 mph    
Visibility 8 miles    
Events Rain    
Averages and records for this station are not official NWS values.
T = Trace of Precipitation, MM = Missing Value Source: NWS Daily Summary

Daily Weather History Graph

Daily Weather History Graph

Search for Another Location

Airport:

Trip Planner

Search our weather history database for the weather conditions in past years. The results will help you decide how hot, cold, wet, or windy it might be!

Date:

Astronomy

Mar. 29, 2014 Rise Set
Actual Time 6:44 AM EDT 7:18 PM EDT
Civil Twilight 6:16 AM EDT 7:46 PM EDT
Nautical Twilight 5:43 AM EDT 8:19 PM EDT
Astronomical Twilight 5:10 AM EDT 8:53 PM EDT
Moon 5:52 AM EDT (3/29) 6:20 PM EDT (3/29)
Length of Visible Light 13h 29m
Length of Day
12h 33m
Waning Crescent, 2% of the Moon is Illuminated
Mar 29
Waning Crescent
Mar 30
New
Apr 7
First Quarter
Apr 15
Full
Apr 22
Last Quarter

Hourly Weather History & Observations

Time (EDT) Temp. Windchill Dew Point Humidity Pressure Visibility Wind Dir Wind Speed Gust Speed Precip Events Conditions
12:45 AM 50.0 °F - 48.2 °F 94% 30.11 in 7.0 mi WNW 11.5 mph - N/A   Overcast
1:45 AM 50.0 °F - 48.2 °F 94% 30.15 in 7.0 mi WNW 4.6 mph - N/A   Scattered Clouds
2:45 AM 44.6 °F - 41.0 °F 87% 30.15 in 7.0 mi Calm Calm - N/A   Partly Cloudy
3:45 AM 44.6 °F - 41.0 °F 87% 30.11 in 7.0 mi Calm Calm - N/A   Partly Cloudy
4:45 AM 35.6 °F - 35.6 °F 100% 30.13 in 10.0 mi Calm Calm - N/A   Clear
5:45 AM 39.2 °F 32.0 °F 39.2 °F 100% 30.15 in 10.0 mi ENE 11.5 mph - N/A   Clear
6:45 AM 39.2 °F 33.6 °F 37.4 °F 93% 30.15 in 20.0 mi East 8.1 mph - N/A   Scattered Clouds
7:45 AM 41.0 °F 36.4 °F 39.2 °F 93% 30.19 in 20.0 mi East 6.9 mph - N/A   Scattered Clouds
8:45 AM 42.8 °F 38.0 °F 39.2 °F 87% 30.22 in 20.0 mi East 8.1 mph - N/A   Mostly Cloudy
9:45 AM 42.8 °F 37.0 °F 39.2 °F 87% 30.22 in 20.0 mi ENE 10.4 mph - N/A   Mostly Cloudy
10:45 AM 44.6 °F 40.7 °F 41.0 °F 87% 30.22 in 15.0 mi East 6.9 mph - N/A   Mostly Cloudy
12:45 PM 46.4 °F 41.9 °F 41.0 °F 81% 30.15 in 10.0 mi East 9.2 mph - N/A   Mostly Cloudy
1:45 PM 44.6 °F 40.7 °F 42.8 °F 93% 30.13 in 6.0 mi ENE 6.9 mph - N/A Rain Light Rain
2:45 PM 46.4 °F 41.1 °F 44.6 °F 93% 30.08 in 4.0 mi East 11.5 mph - N/A Rain Light Rain
3:45 PM 46.4 °F 41.1 °F 44.6 °F 93% 30.06 in 4.0 mi ENE 11.5 mph - N/A Rain Light Rain
4:45 PM 46.4 °F 41.9 °F 46.4 °F 100% 30.04 in 3.0 mi NE 9.2 mph - N/A Rain Light Rain
5:45 PM 44.6 °F 38.8 °F 44.6 °F 100% 29.98 in 3.0 mi ENE 11.5 mph - N/A Rain Light Rain
6:45 PM 44.6 °F 38.1 °F 44.6 °F 100% 29.96 in 3.0 mi ENE 13.8 mph - N/A Rain Light Rain
7:45 PM 44.6 °F 39.7 °F 44.6 °F 100% 29.95 in 4.0 mi ENE 9.2 mph - N/A Rain Light Rain
8:45 PM 44.6 °F 37.4 °F 44.6 °F 100% 29.92 in 4.0 mi ENE 16.1 mph - N/A Rain Light Rain
9:45 PM 44.6 °F 36.9 °F 42.8 °F 93% 29.89 in 4.0 mi ENE 18.4 mph - N/A Rain Light Rain
10:45 PM 44.6 °F 38.1 °F 42.8 °F 93% 29.85 in 4.0 mi ENE 13.8 mph 25.3 mph N/A Rain Light Rain
11:45 PM 42.8 °F 35.1 °F 41.0 °F 93% 29.78 in 4.0 mi ENE 16.1 mph 21.9 mph N/A Rain Light Rain